Time,TemperatureF,DewpointF,PressureIn,WindDirection,WindDirectionDegrees,WindSpeedMPH,WindSpeedGustMPH,Humidity,HourlyPrecipIn,Conditions,Clouds,dailyrainin,SoftwareType,DateUTC
2013-01-24 00:02:00,5.0,-4.0,-100.00,NNE,20,21.0,24.0,64,0.00,,,-99.99,,2013-01-24 06:02:00,
2013-01-24 00:12:00,5.0,-4.0,-100.00,NNE,20,21.0,24.0,64,0.00,,,-99.99,,2013-01-24 06:12:00,
2013-01-24 00:22:00,4.0,-5.0,-100.00,North,10,19.0,26.0,64,0.00,,,-99.99,,2013-01-24 06:22:00,
2013-01-24 00:32:00,4.0,-5.0,-100.00,NNE,30,12.0,24.0,65,0.00,,,-99.99,,2013-01-24 06:32:00,
2013-01-24 00:42:00,4.0,-5.0,-100.00,NNE,30,12.0,24.0,65,0.00,,,-99.99,,2013-01-24 06:42:00,
2013-01-24 00:52:00,4.0,-5.0,-100.00,NNE,30,12.0,24.0,65,0.00,,,-99.99,,2013-01-24 06:52:00,
2013-01-24 01:02:00,4.0,-5.0,-100.00,NNE,30,12.0,24.0,65,0.00,,,-99.99,,2013-01-24 07:02:00,
2013-01-24 01:12:00,4.0,-5.0,-100.00,NNE,30,12.0,24.0,65,0.00,,,-99.99,,2013-01-24 07:12:00,
2013-01-24 01:22:00,4.0,-5.0,-100.00,NNE,30,12.0,24.0,65,0.00,,,-99.99,,2013-01-24 07:22:00,
2013-01-24 01:33:00,3.0,-5.0,-100.00,NNE,30,16.0,24.0,66,0.00,,,-99.99,,2013-01-24 07:33:00,
2013-01-24 01:43:00,3.0,-5.0,-100.00,NNE,30,16.0,24.0,66,0.00,,,-99.99,,2013-01-24 07:43:00,
2013-01-24 01:53:00,3.0,-5.0,-100.00,NNE,25,14.0,23.0,66,0.00,,,-99.99,,2013-01-24 07:53:00,
2013-01-24 02:02:00,3.0,-5.0,-100.00,NNE,25,14.0,23.0,66,0.00,,,-99.99,,2013-01-24 08:02:00,
2013-01-24 02:12:00,3.0,-5.0,-100.00,NNE,25,14.0,23.0,66,0.00,,,-99.99,,2013-01-24 08:12:00,
2013-01-24 02:22:00,3.0,-6.0,-100.00,NNE,30,16.0,22.0,66,0.00,,,-99.99,,2013-01-24 08:22:00,
2013-01-24 02:33:00,2.0,-6.0,-100.00,NNE,30,12.0,19.0,67,0.00,,,-99.99,,2013-01-24 08:33:00,
2013-01-24 02:43:00,2.0,-6.0,-100.00,NNE,30,12.0,19.0,67,0.00,,,-99.99,,2013-01-24 08:43:00,
2013-01-24 02:53:00,2.0,-6.0,-100.00,NE,35,13.0,20.0,67,0.00,,,-99.99,,2013-01-24 08:53:00,
2013-01-24 03:03:00,2.0,-6.0,-100.00,NE,35,13.0,20.0,67,0.00,,,-99.99,,2013-01-24 09:03:00,
2013-01-24 03:12:00,2.0,-6.0,-100.00,NE,35,12.0,17.0,67,0.00,,,-99.99,,2013-01-24 09:12:00,
2013-01-24 03:22:00,2.0,-6.0,-100.00,NE,40,12.0,18.0,67,0.00,,,-99.99,,2013-01-24 09:22:00,
2013-01-24 03:33:00,2.0,-6.0,-100.00,NNE,30,10.0,17.0,67,0.00,,,-99.99,,2013-01-24 09:33:00,
2013-01-24 03:42:00,2.0,-6.0,-100.00,NNE,30,10.0,17.0,67,0.00,,,-99.99,,2013-01-24 09:42:00,
2013-01-24 03:52:00,2.0,-6.0,-100.00,NNE,30,12.0,16.0,67,0.00,,,-99.99,,2013-01-24 09:52:00,
2013-01-24 04:02:00,2.0,-6.0,-100.00,NNE,30,12.0,16.0,67,0.00,,,-99.99,,2013-01-24 10:02:00,
2013-01-24 04:12:00,2.0,-6.0,-100.00,NNE,30,9.0,13.0,67,0.00,,,-99.99,,2013-01-24 10:12:00,
2013-01-24 04:22:00,2.0,-6.0,-100.00,NE,35,9.0,14.0,67,0.00,,,-99.99,,2013-01-24 10:22:00,
2013-01-24 04:33:00,2.0,-6.0,-100.00,NE,35,11.0,13.0,67,0.00,,,-99.99,,2013-01-24 10:33:00,
2013-01-24 04:43:00,2.0,-6.0,-100.00,NE,35,11.0,13.0,67,0.00,,,-99.99,,2013-01-24 10:43:00,
2013-01-24 04:52:00,2.0,-6.0,-100.00,NE,40,10.0,14.0,66,0.00,,,-99.99,,2013-01-24 10:52:00,
2013-01-24 05:02:00,2.0,-6.0,-100.00,NE,40,10.0,14.0,66,0.00,,,-99.99,,2013-01-24 11:02:00,
2013-01-24 05:12:00,2.0,-6.0,-100.00,NE,40,10.0,14.0,66,0.00,,,-99.99,,2013-01-24 11:12:00,
2013-01-24 05:22:00,2.0,-6.0,-100.00,NE,40,13.0,16.0,66,0.00,,,-99.99,,2013-01-24 11:22:00,
2013-01-24 05:33:00,2.0,-6.0,-100.00,NE,45,12.0,16.0,66,0.00,,,-99.99,,2013-01-24 11:33:00,
2013-01-24 05:43:00,2.0,-6.0,-100.00,NE,45,12.0,16.0,66,0.00,,,-99.99,,2013-01-24 11:43:00,
2013-01-24 05:53:00,2.0,-6.0,-100.00,NE,45,12.0,16.0,66,0.00,,,-99.99,,2013-01-24 11:53:00,
2013-01-24 06:03:00,2.0,-7.0,-100.00,NE,50,9.0,16.0,66,0.00,,,-99.99,,2013-01-24 12:03:00,
2013-01-24 06:12:00,2.0,-7.0,-100.00,NE,50,9.0,16.0,66,0.00,,,-99.99,,2013-01-24 12:12:00,
2013-01-24 06:22:00,2.0,-7.0,-100.00,NE,50,9.0,16.0,66,0.00,,,-99.99,,2013-01-24 12:22:00,
2013-01-24 06:33:00,2.0,-6.0,-100.00,ENE,65,6.0,9.0,67,0.00,,,-99.99,,2013-01-24 12:33:00,
2013-01-24 06:42:00,2.0,-6.0,-100.00,ENE,65,6.0,9.0,67,0.00,,,-99.99,,2013-01-24 12:42:00,
2013-01-24 06:53:00,2.0,-6.0,-100.00,NE,50,6.0,11.0,67,0.00,,,-99.99,,2013-01-24 12:53:00,
2013-01-24 07:03:00,2.0,-6.0,-100.00,NE,50,6.0,11.0,67,0.00,,,-99.99,,2013-01-24 13:03:00,
2013-01-24 07:12:00,2.0,-6.0,-100.00,ENE,70,9.0,12.0,67,0.00,,,-99.99,,2013-01-24 13:12:00,
2013-01-24 07:23:00,2.0,-6.0,-100.00,ENE,65,10.0,13.0,67,0.00,,,-99.99,,2013-01-24 13:23:00,
2013-01-24 07:33:00,2.0,-6.0,-100.00,ENE,60,11.0,14.0,67,0.00,,,-99.99,,2013-01-24 13:33:00,
2013-01-24 07:42:00,2.0,-6.0,-100.00,ENE,60,11.0,14.0,67,0.00,,,-99.99,,2013-01-24 13:42:00,
2013-01-24 07:52:00,2.0,-6.0,-100.00,ENE,60,11.0,15.0,66,0.00,,,-99.99,,2013-01-24 13:52:00,
2013-01-24 08:02:00,2.0,-6.0,-100.00,ENE,60,11.0,15.0,66,0.00,,,-99.99,,2013-01-24 14:02:00,
2013-01-24 08:12:00,2.0,-6.0,-100.00,ENE,60,11.0,15.0,66,0.00,,,-99.99,,2013-01-24 14:12:00,
2013-01-24 08:22:00,3.0,-6.0,-100.00,NE,55,11.0,15.0,66,0.00,,,-99.99,,2013-01-24 14:22:00,
2013-01-24 08:33:00,3.0,-6.0,-100.00,ENE,75,16.0,19.0,64,0.00,,,-99.99,,2013-01-24 14:33:00,
2013-01-24 08:43:00,3.0,-6.0,-100.00,ENE,75,16.0,19.0,64,0.00,,,-99.99,,2013-01-24 14:43:00,
2013-01-24 08:54:00,3.0,-6.0,-100.00,East,85,13.0,16.0,63,0.00,,,-99.99,,2013-01-24 14:54:00,
2013-01-24 09:03:00,3.0,-6.0,-100.00,East,85,13.0,16.0,63,0.00,,,-99.99,,2013-01-24 15:03:00,
2013-01-24 09:12:00,4.0,-6.0,-100.00,East,85,11.0,16.0,63,0.00,,,-99.99,,2013-01-24 15:12:00,
2013-01-24 09:22:00,4.0,-5.0,-100.00,ENE,75,13.0,16.0,62,0.00,,,-99.99,,2013-01-24 15:22:00,
2013-01-24 09:33:00,5.0,-5.0,-100.00,East,90,10.0,17.0,62,0.00,,,-99.99,,2013-01-24 15:33:00,
2013-01-24 09:43:00,5.0,-5.0,-100.00,East,85,12.0,16.0,61,0.00,,,-99.99,,2013-01-24 15:43:00,
2013-01-24 09:52:00,6.0,-5.0,-100.00,East,85,13.0,18.0,61,0.00,,,-99.99,,2013-01-24 15:52:00,
2013-01-24 10:03:00,6.0,-5.0,-100.00,East,85,13.0,18.0,61,0.00,,,-99.99,,2013-01-24 16:03:00,
2013-01-24 10:12:00,6.0,-5.0,-100.00,East,90,10.0,17.0,60,0.00,,,-99.99,,2013-01-24 16:12:00,
2013-01-24 10:22:00,7.0,-4.0,-100.00,East,80,14.0,17.0,60,0.00,,,-99.99,,2013-01-24 16:22:00,
2013-01-24 10:33:00,8.0,-4.0,-100.00,ESE,110,11.0,18.0,58,0.00,,,-99.99,,2013-01-24 16:33:00,
2013-01-24 10:42:00,8.0,-4.0,-100.00,ESE,110,11.0,18.0,58,0.00,,,-99.99,,2013-01-24 16:42:00,
2013-01-24 11:02:00,9.0,-3.0,-100.00,ESE,105,12.0,17.0,56,0.00,,,-99.99,,2013-01-24 17:02:00,
2013-01-24 11:12:00,9.0,-4.0,-100.00,East,95,11.0,17.0,55,0.00,,,-99.99,,2013-01-24 17:12:00,
2013-01-24 11:21:00,9.0,-3.0,-100.00,ESE,105,8.0,16.0,55,0.00,,,-99.99,,2013-01-24 17:21:00,
2013-01-24 11:32:00,10.0,-3.0,-100.00,ESE,115,6.0,17.0,54,0.00,,,-99.99,,2013-01-24 17:32:00,
2013-01-24 11:42:00,10.0,-3.0,-100.00,ESE,115,6.0,17.0,54,0.00,,,-99.99,,2013-01-24 17:42:00,
2013-01-24 11:52:00,11.0,-3.0,-100.00,ESE,110,11.0,17.0,53,0.00,,,-99.99,,2013-01-24 17:52:00,
2013-01-24 12:02:00,11.0,-3.0,-100.00,ESE,110,11.0,17.0,53,0.00,,,-99.99,,2013-01-24 18:02:00,
2013-01-24 12:12:00,12.0,-2.0,-100.00,ESE,120,7.0,16.0,52,0.00,,,-99.99,,2013-01-24 18:12:00,
2013-01-24 12:22:00,12.0,-3.0,-100.00,ESE,105,12.0,17.0,51,0.00,,,-99.99,,2013-01-24 18:22:00,
2013-01-24 12:32:00,12.0,-3.0,-100.00,ESE,105,12.0,17.0,51,0.00,,,-99.99,,2013-01-24 18:32:00,
2013-01-24 12:42:00,12.0,-3.0,-100.00,ESE,105,12.0,17.0,51,0.00,,,-99.99,,2013-01-24 18:42:00,
2013-01-24 12:52:00,14.0,-1.0,-100.00,SE,135,9.0,15.0,48,0.00,,,-99.99,,2013-01-24 18:52:00,
2013-01-24 13:02:00,14.0,-1.0,-100.00,SE,135,9.0,15.0,48,0.00,,,-99.99,,2013-01-24 19:02:00,
2013-01-24 13:12:00,14.0,-1.0,-100.00,SE,135,9.0,15.0,48,0.00,,,-99.99,,2013-01-24 19:12:00,
2013-01-24 13:22:00,15.0,-1.0,-100.00,ESE,110,9.0,14.0,46,0.00,,,-99.99,,2013-01-24 19:22:00,
2013-01-24 13:33:00,16.0,-2.0,-100.00,ESE,115,7.0,13.0,45,0.00,,,-99.99,,2013-01-24 19:33:00,
2013-01-24 13:42:00,16.0,-2.0,-100.00,ESE,115,7.0,13.0,45,0.00,,,-99.99,,2013-01-24 19:42:00,
2013-01-24 13:53:00,16.0,-2.0,-100.00,SE,125,7.0,12.0,45,0.00,,,-99.99,,2013-01-24 19:53:00,
2013-01-24 14:02:00,16.0,-2.0,-100.00,SE,125,7.0,12.0,45,0.00,,,-99.99,,2013-01-24 20:02:00,
2013-01-24 14:11:00,16.0,-2.0,-100.00,SE,125,7.0,12.0,45,0.00,,,-99.99,,2013-01-24 20:11:00,
2013-01-24 14:22:00,15.0,-2.0,-100.00,East,80,6.0,13.0,44,0.00,,,-99.99,,2013-01-24 20:22:00,
2013-01-24 14:32:00,15.0,-2.0,-100.00,East,80,6.0,13.0,44,0.00,,,-99.99,,2013-01-24 20:32:00,
2013-01-24 14:42:00,15.0,-2.0,-100.00,East,80,6.0,13.0,44,0.00,,,-99.99,,2013-01-24 20:42:00,
2013-01-24 14:52:00,16.0,-2.0,-100.00,East,100,8.0,16.0,44,0.00,,,-99.99,,2013-01-24 20:52:00,
2013-01-24 15:02:00,16.0,-2.0,-100.00,East,100,8.0,16.0,44,0.00,,,-99.99,,2013-01-24 21:02:00,
2013-01-24 15:12:00,16.0,-2.0,-100.00,East,100,8.0,16.0,44,0.00,,,-99.99,,2013-01-24 21:12:00,
2013-01-24 15:22:00,16.0,-2.0,-100.00,East,100,8.0,16.0,44,0.00,,,-99.99,,2013-01-24 21:22:00,
2013-01-24 15:33:00,16.0,-2.0,-100.00,ESE,105,6.0,13.0,43,0.00,,,-99.99,,2013-01-24 21:33:00,
2013-01-24 15:42:00,16.0,-2.0,-100.00,ESE,105,6.0,13.0,43,0.00,,,-99.99,,2013-01-24 21:42:00,
2013-01-24 15:53:00,17.0,-2.0,-100.00,ESE,110,10.0,13.0,43,0.00,,,-99.99,,2013-01-24 21:53:00,
2013-01-24 16:03:00,17.0,-2.0,-100.00,ESE,110,10.0,13.0,43,0.00,,,-99.99,,2013-01-24 22:03:00,
2013-01-24 16:12:00,17.0,-2.0,-100.00,ESE,110,7.0,14.0,43,0.00,,,-99.99,,2013-01-24 22:12:00,
2013-01-24 16:22:00,17.0,-2.0,-100.00,ESE,120,9.0,16.0,42,0.00,,,-99.99,,2013-01-24 22:22:00,
2013-01-24 16:32:00,16.0,-2.0,-100.00,ESE,105,11.0,16.0,42,0.00,,,-99.99,,2013-01-24 22:32:00,
2013-01-24 16:42:00,16.0,-2.0,-100.00,ESE,105,11.0,16.0,42,0.00,,,-99.99,,2013-01-24 22:42:00,
2013-01-24 16:52:00,17.0,-2.0,-100.00,ESE,110,6.0,16.0,42,0.00,,,-99.99,,2013-01-24 22:52:00,
2013-01-24 17:02:00,17.0,-2.0,-100.00,ESE,110,6.0,16.0,42,0.00,,,-99.99,,2013-01-24 23:02:00,
2013-01-24 17:12:00,17.0,-2.0,-100.00,ESE,110,6.0,16.0,42,0.00,,,-99.99,,2013-01-24 23:12:00,
2013-01-24 17:22:00,17.0,-2.0,-100.00,ESE,115,9.0,13.0,42,0.00,,,-99.99,,2013-01-24 23:22:00,
2013-01-24 17:32:00,17.0,-2.0,-100.00,ESE,115,9.0,13.0,42,0.00,,,-99.99,,2013-01-24 23:32:00,
2013-01-24 17:42:00,17.0,-2.0,-100.00,ESE,115,9.0,13.0,42,0.00,,,-99.99,,2013-01-24 23:42:00,
2013-01-24 17:52:00,17.0,-2.0,-100.00,ESE,115,7.0,11.0,43,0.00,,,-99.99,,2013-01-24 23:52:00,
2013-01-24 18:02:00,17.0,-2.0,-100.00,ESE,115,7.0,11.0,43,0.00,,,-99.99,,2013-01-25 00:02:00,
2013-01-24 18:11:00,17.0,-1.0,-100.00,SE,135,6.0,12.0,43,0.00,,,-99.99,,2013-01-25 00:11:00,
2013-01-24 18:12:00,17.0,-2.0,-100.00,ESE,115,7.0,11.0,43,0.00,,,-99.99,,2013-01-25 00:12:00,
2013-01-24 18:22:00,17.0,-1.0,-100.00,ESE,120,5.0,14.0,43,0.00,,,-99.99,,2013-01-25 00:22:00,
2013-01-24 18:32:00,17.0,-1.0,-100.00,SE,135,6.0,12.0,43,0.00,,,-99.99,,2013-01-25 00:32:00,
2013-01-24 18:41:00,17.0,-1.0,-100.00,SE,135,6.0,12.0,43,0.00,,,-99.99,,2013-01-25 00:41:00,
2013-01-24 18:52:00,17.0,-1.0,-100.00,SE,135,6.0,12.0,43,0.00,,,-99.99,,2013-01-25 00:52:00,
2013-01-24 19:01:00,17.0,-1.0,-100.00,SE,135,6.0,12.0,43,0.00,,,-99.99,,2013-01-25 01:01:00,
2013-01-24 19:11:00,17.0,-1.0,-100.00,SE,135,6.0,14.0,44,0.00,,,-99.99,,2013-01-25 01:11:00,
2013-01-24 19:22:00,17.0,-1.0,-100.00,SE,125,7.0,15.0,44,0.00,,,-99.99,,2013-01-25 01:22:00,
2013-01-24 19:32:00,17.0,-1.0,-100.00,SE,135,6.0,14.0,44,0.00,,,-99.99,,2013-01-25 01:32:00,
2013-01-24 19:42:00,17.0,-1.0,-100.00,SE,135,6.0,14.0,44,0.00,,,-99.99,,2013-01-25 01:42:00,
2013-01-24 19:52:00,17.0,-1.0,-100.00,SE,135,6.0,14.0,44,0.00,,,-99.99,,2013-01-25 01:52:00,
2013-01-24 20:02:00,17.0,-1.0,-100.00,SE,135,6.0,14.0,44,0.00,,,-99.99,,2013-01-25 02:02:00,
2013-01-24 20:22:00,17.0,0.0,-100.00,SE,145,9.0,16.0,45,0.00,,,-99.99,,2013-01-25 02:22:00,
2013-01-24 20:33:00,18.0,0.0,-100.00,SE,145,8.0,18.0,46,0.00,,,-99.99,,2013-01-25 02:33:00,
2013-01-24 20:43:00,18.0,0.0,-100.00,SE,145,8.0,18.0,46,0.00,,,-99.99,,2013-01-25 02:43:00,
2013-01-24 20:53:00,18.0,1.0,-100.00,SSE,150,6.0,14.0,46,0.00,,,-99.99,,2013-01-25 02:53:00,
2013-01-24 21:02:00,18.0,1.0,-100.00,SSE,150,6.0,14.0,46,0.00,,,-99.99,,2013-01-25 03:02:00,
2013-01-24 21:12:00,18.0,1.0,-100.00,SSE,150,6.0,14.0,46,0.00,,,-99.99,,2013-01-25 03:12:00,
2013-01-24 21:22:00,18.0,1.0,-100.00,SSE,150,8.0,15.0,46,0.00,,,-99.99,,2013-01-25 03:22:00,
2013-01-24 21:33:00,18.0,1.0,-100.00,SE,145,9.0,14.0,46,0.00,,,-99.99,,2013-01-25 03:33:00,
2013-01-24 21:41:00,18.0,1.0,-100.00,SE,145,9.0,14.0,46,0.00,,,-99.99,,2013-01-25 03:41:00,
2013-01-24 21:52:00,19.0,2.0,-100.00,SSE,150,12.0,17.0,47,0.00,,,-99.99,,2013-01-25 03:52:00,
2013-01-24 22:02:00,19.0,2.0,-100.00,SSE,150,12.0,17.0,47,0.00,,,-99.99,,2013-01-25 04:02:00,
2013-01-24 22:12:00,19.0,2.0,-100.00,SSE,150,12.0,17.0,47,0.00,,,-99.99,,2013-01-25 04:12:00,
2013-01-24 22:22:00,19.0,2.0,-100.00,SSE,150,12.0,17.0,47,0.00,,,-99.99,,2013-01-25 04:22:00,
2013-01-24 22:32:00,19.0,2.0,-100.00,SSE,150,12.0,17.0,47,0.00,,,-99.99,,2013-01-25 04:32:00,
2013-01-24 22:52:00,19.0,2.0,-100.00,South,175,9.0,12.0,47,0.00,,,-99.99,,2013-01-25 04:52:00,
2013-01-24 23:03:00,19.0,2.0,-100.00,South,175,9.0,12.0,47,0.00,,,-99.99,,2013-01-25 05:03:00,
2013-01-24 23:12:00,19.0,2.0,-100.00,South,175,9.0,12.0,47,0.00,,,-99.99,,2013-01-25 05:12:00,
2013-01-24 23:22:00,19.0,3.0,-100.00,South,175,8.0,14.0,47,0.00,,,-99.99,,2013-01-25 05:22:00,
2013-01-24 23:32:00,19.0,3.0,-100.00,South,185,10.0,14.0,48,0.00,,,-99.99,,2013-01-25 05:32:00,
2013-01-24 23:43:00,19.0,3.0,-100.00,South,185,10.0,14.0,48,0.00,,,-99.99,,2013-01-25 05:43:00,
2013-01-24 23:52:00,19.0,3.0,-100.00,South,190,9.0,12.0,48,0.00,,,-99.99,,2013-01-25 05:52:00,